Tracking 30743 objects as of 22-Jun-2025
HD Live streaming from Space Station
objects crossing your sky now

STARLINK-6304

Track STARLINK-6304 now!
10-day predictions
STARLINK-6304 is classified as:


NORAD ID: 56778
Int'l Code: 2023-078M
Perigee: 576.6 km
Apogee: 581.8 km
Inclination: 70.0 °
Period: 96.1 minutes
Semi major axis: 6950 km
RCS: Unknown
Launch date: May 31, 2023
Source: United States (US)
Launch site: AIR FORCE WESTERN TEST RANGE (AFWTR)
Your satellite tracking list
Your tracking list is empty




NASA's NSSDC Master Catalog

Two Line Element Set (TLE):
1 56778U 23078M   25173.48603784  .00000089  00000-0  15278-4 0  9995
2 56778  69.9991 260.6765 0003784 267.5020  92.5706 14.98331063114197
Source of the keplerian elements: AFSPC